DW0148 Weather Reports


time (UTC)temp
F
wind
direction
speed
knots
gust
knots
rain 1hr
in
rain 24hr
in
rain mn
in
humidity
%
barometer
mb
20260506051116 70 235 2.6 5.2 0.00 0.00 0.00 56 1009.1
20260506050615 70 186 0.9 5.2 0.00 0.00 0.00 56 1009.1
20260506050114 70 229 2.6 5.2 0.00 0.00 0.00 56 1009.5
20260506045111 70 224 2.6 6.1 0.00 0.00 0.00 55 1009.1
20260506044610 70 217 1.7 6.1 0.00 0.00 0.00 56 1009.1
20260506044108 70 235 2.6 6.1 0.00 0.00 0.00 56 1009.1
20260506043535 70 219 0.9 6.1 0.00 0.00 0.00 56 1009.1
20260506043033 70 217 1.7 7.0 0.00 0.00 0.00 55 1009.1
20260506042532 70 235 2.6 7.0 0.00 0.00 0.00 55 1009.1
20260506042031 70 231 2.6 5.2 0.00 0.00 0.00 55 1009.1
20260506041529 70 234 1.7 6.1 0.00 0.00 0.00 55 1009.1
20260506041028 70 239 1.7 6.1 0.00 0.00 0.00 55 1009.1
20260506040527 70 221 1.7 6.1 0.00 0.00 0.00 55 1008.8
20260506040026 70 232 2.6 6.1 0.00 0.00 0.00 54 1008.8
20260506035525 70 225 2.6 7.0 0.00 0.00 0.00 54 1008.8
20260506034921 70 208 2.6 7.8 0.00 0.00 0.00 54 1009.1
20260506034420 70 231 2.6 7.8 0.00 0.00 0.00 54 1009.5
20260506033918 70 217 2.6 7.0 0.00 0.00 0.00 53 1009.5
20260506033344 70 208 2.6 7.8 0.00 0.00 0.00 53 1009.1
20260506032740 70 240 2.6 7.8 0.00 0.00 0.00 52 1009.1
20260506032237 70 239 1.7 7.8 0.00 0.00 0.00 52 1009.1
20260506031736 70 219 2.6 8.7 0.00 0.00 0.00 52 1009.1
20260506031235 70 220 2.6 8.7 0.00 0.00 0.00 52 1009.5
20260506030734 69 217 1.7 4.3 0.00 0.00 0.00 53 1009.5
20260506030232 69 211 1.7 3.5 0.00 0.00 0.00 52 1009.8
20260506025731 70 199 0.9 3.5 0.00 0.00 0.00 54 1009.8
20260506025158 70 225 1.7 3.5 0.00 0.00 0.00 51 1009.8
20260506024555 70 231 1.7 2.6 0.00 0.00 0.00 51 1009.8
20260506024054 70 119 0.9 2.6 0.00 0.00 0.00 51 1009.5
20260506023552 70 190 0.9 3.5 0.00 0.00 0.00 51 1009.5
20260506023019 70 168 0.0 4.3 0.00 0.00 0.00 51 1009.5
20260506022518 70 235 1.7 4.3 0.00 0.00 0.00 50 1009.5
20260506022016 70 201 0.9 4.3 0.00 0.00 0.00 50 1009.5
20260506021516 70 215 0.9 4.3 0.00 0.00 0.00 49 1009.5
20260506021014 70 212 1.7 5.2 0.00 0.00 0.00 49 1009.1
20260506020442 70 232 1.7 5.2 0.00 0.00 0.00 49 1009.1
20260506015941 70 210 1.7 5.2 0.00 0.00 0.00 49 1009.1
20260506015441 70 233 1.7 5.2 0.00 0.00 0.00 50 1009.1
20260506014939 70 209 1.7 5.2 0.00 0.00 0.00 50 1009.1
20260506014438 70 202 1.7 5.2 0.00 0.00 0.00 50 1009.1
20260506013937 70 208 1.7 5.2 0.00 0.00 0.00 51 1009.1
20260506013436 69 230 1.7 6.1 0.00 0.00 0.00 51 1009.1
20260506012935 69 244 1.7 6.1 0.00 0.00 0.00 51 1008.8
20260506012434 69 148 1.7 6.1 0.00 0.00 0.00 52 1008.8
20260506011933 69 177 0.9 5.2 0.00 0.00 0.00 53 1008.8
20260506011431 69 228 1.7 5.2 0.00 0.00 0.00 52 1008.8
20260506010930 68 189 0.9 5.2 0.00 0.00 0.00 52 1008.8
20260506010429 68 208 0.9 3.5 0.00 0.00 0.00 53 1008.5
20260506005824 67 223 1.7 2.6 0.00 0.00 0.00 55 1008.5
20260506005322 67 184 1.7 1.7 0.00 0.00 0.00 54 1008.8
20260506004821 68 153 0.9 3.5 0.00 0.00 0.00 55 1008.8
20260506004248 68 149 0.9 3.5 0.00 0.00 0.00 55 1008.8
20260506003746 69 159 0.0 3.5 0.00 0.00 0.00 52 1008.8
20260506003245 69 206 1.7 3.5 0.00 0.00 0.00 51 1008.8
20260506002744 70 187 0.0 1.7 0.00 0.00 0.00 50 1008.8
20260506002243 70 168 0.9 3.5 0.00 0.00 0.00 50 1008.8
20260506001742 71 230 1.7 4.3 0.00 0.00 0.00 48 1008.8
20260506001138 71 246 0.9 4.3 0.00 0.00 0.00 48 1008.8
20260506000637 72 222 0.9 4.3 0.00 0.00 0.00 48 1008.8
20260506000136 72 223 0.9 5.2 0.00 0.00 0.00 48 1009.1
20260505235603 72 221 1.7 6.1 0.00 0.00 0.00 46 1009.1
20260505235102 72 241 1.7 7.8 0.00 0.00 0.00 46 1009.1
20260505234601 73 221 1.7 7.8 0.00 0.00 0.00 46 1009.1
20260505234028 73 193 1.7 7.8 0.00 0.00 0.00 46 1009.5
20260505233527 73 229 2.6 7.8 0.00 0.00 0.00 45 1009.5
20260505233026 73 201 2.6 7.0 0.00 0.00 0.00 45 1009.1
20260505232525 73 224 2.6 9.6 0.00 0.00 0.00 45 1009.1
20260505232024 73 202 2.6 9.6 0.00 0.00 0.00 47 1009.1
20260505231521 74 231 3.5 11.3 0.00 0.00 0.00 44 1009.1
20260505230949 74 244 4.3 11.3 0.00 0.00 0.00 43 1008.8
20260505230448 74 135 3.5 11.3 0.00 0.00 0.00 43 1008.8
20260505225947 75 217 2.6 11.3 0.00 0.00 0.00 43 1008.8
20260505225445 75 233 1.7 12.2 0.00 0.00 0.00 43 1008.8
20260505224944 75 215 2.6 12.2 0.00 0.00 0.00 43 1008.8
20260505224443 75 226 5.2 12.2 0.00 0.00 0.00 41 1008.8
20260505223942 75 240 2.6 7.8 0.00 0.00 0.00 43 1008.8
20260505223441 75 213 3.5 11.3 0.00 0.00 0.00 41 1008.8
20260505222940 76 215 4.3 11.3 0.00 0.00 0.00 41 1008.8
20260505222439 76 227 1.7 11.3 0.00 0.00 0.00 42 1008.8
20260505221938 76 214 4.3 11.3 0.00 0.00 0.00 43 1008.8
20260505221437 76 110 2.6 9.6 0.00 0.00 0.00 45 1008.5
20260505220936 76 197 1.7 9.6 0.00 0.00 0.00 45 1008.8
20260505220435 76 233 2.6 10.4 0.00 0.00 0.00 45 1008.8
20260505215934 77 234 2.6 10.4 0.00 0.00 0.00 45 1008.8
20260505215433 77 234 4.3 8.7 0.00 0.00 0.00 45 1008.8
20260505214932 76 236 1.7 8.7 0.00 0.00 0.00 47 1008.8
20260505214431 76 221 2.6 6.1 0.00 0.00 0.00 49 1008.8
20260505213930 76 193 1.7 6.1 0.00 0.00 0.00 47 1008.8
20260505213429 76 239 1.7 10.4 0.00 0.00 0.00 49 1008.8
20260505212856 76 242 1.7 10.4 0.00 0.00 0.00 48 1008.8
20260505212354 77 233 3.5 10.4 0.00 0.00 0.00 46 1008.8
20260505211853 77 225 4.3 10.4 0.00 0.00 0.00 45 1009.1
20260505211353 77 214 2.6 8.7 0.00 0.00 0.00 46 1008.8
20260505210819 77 240 5.2 9.6 0.00 0.00 0.00 45 1008.8
20260505210318 77 279 3.5 12.2 0.00 0.00 0.00 46 1008.8
20260505205816 77 229 3.5 12.2 0.00 0.00 0.00 46 1008.8
20260505205315 76 252 2.6 12.2 0.00 0.00 0.00 44 1009.1
20260505204814 77 224 6.1 12.2 0.00 0.00 0.00 45 1009.1
20260505204313 77 222 1.7 10.4 0.00 0.00 0.00 47 1009.1
20260505203811 77 196 2.6 7.8 0.00 0.00 0.00 47 1009.1
20260505203310 77 225 3.5 7.8 0.00 0.00 0.00 46 1009.5
20260505202808 77 231 3.5 10.4 0.00 0.00 0.00 47 1009.5
20260505202307 77 235 4.3 11.3 0.00 0.00 0.00 46 1009.8
20260505201703 77 198 2.6 11.3 0.00 0.00 0.00 47 1009.8
20260505201202 77 232 4.3 10.4 0.00 0.00 0.00 45 1009.8
20260505200700 77 245 4.3 10.4 0.00 0.00 0.00 46 1010.2
20260505200159 78 241 4.3 10.4 0.00 0.00 0.00 44 1010.2
20260505195657 78 227 3.5 7.8 0.00 0.00 0.00 45 1010.2
20260505195157 77 240 1.7 7.8 0.00 0.00 0.00 46 1010.2
20260505194656 77 240 1.7 7.8 0.00 0.00 0.00 44 1010.2
20260505194154 77 222 3.5 8.7 0.00 0.00 0.00 47 1010.2
20260505193653 76 167 1.7 8.7 0.00 0.00 0.00 47 1010.2
20260505193151 76 235 2.6 9.6 0.00 0.00 0.00 48 1010.5
20260505192618 76 205 2.6 9.6 0.00 0.00 0.00 46 1010.2
20260505192116 75 223 2.6 7.0 0.00 0.00 0.00 50 1010.2
20260505191614 75 190 1.7 7.0 0.00 0.00 0.00 50 1010.2
20260505191112 75 173 2.6 9.6 0.00 0.00 0.00 52 1010.5
20260505190609 74 238 1.7 9.6 0.00 0.00 0.00 54 1010.8
20260505190108 74 243 3.5 10.4 0.00 0.00 0.00 51 1010.8
20260505185608 74 244 4.3 10.4 0.00 0.00 0.00 49 1010.8
20260505185106 74 240 4.3 8.7 0.00 0.00 0.00 52 1010.8
20260505184605 74 134 0.9 7.0 0.00 0.00 0.00 51 1010.8
20260505184104 75 228 2.6 6.1 0.00 0.00 0.00 52 1011.2
20260505183603 75 175 0.9 7.0 0.00 0.00 0.00 52 1011.2
20260505183102 75 198 1.7 7.0 0.00 0.00 0.00 53 1011.5
20260505182601 75 153 1.7 7.0 0.00 0.00 0.00 53 1011.5
20260505182059 75 223 3.5 7.0 0.00 0.00 0.00 53 1011.5
20260505181558 75 213 2.6 7.0 0.00 0.00 0.00 52 1011.9
20260505181057 75 239 2.6 8.7 0.00 0.00 0.00 52 1011.9
20260505180555 75 242 2.6 8.7 0.00 0.00 0.00 53 1011.9
20260505180052 74 142 1.7 9.6 0.00 0.00 0.00 57 1011.9
20260505175551 74 221 1.7 9.6 0.00 0.00 0.00 53 1011.9
20260505175050 74 261 2.6 8.7 0.00 0.00 0.00 54 1012.2
20260505174549 73 230 3.5 8.7 0.00 0.00 0.00 55 1012.2
20260505174017 73 225 4.3 8.7 0.00 0.00 0.00 53 1012.2
20260505173516 73 211 1.7 8.7 0.00 0.00 0.00 56 1012.5
20260505173015 73 241 3.5 7.8 0.00 0.00 0.00 55 1012.5
20260505172512 73 104 3.5 7.8 0.00 0.00 0.00 57 1012.5
20260505172010 73 212 1.7 8.7 0.00 0.00 0.00 56 1012.5
20260505171436 73 241 5.2 8.7 0.00 0.00 0.00 53 1012.5
20260505170935 74 233 4.3 7.8 0.00 0.00 0.00 55 1012.9
20260505170434 74 195 2.6 8.7 0.00 0.00 0.00 56 1013.2
20260505165933 74 238 4.3 8.7 0.00 0.00 0.00 52 1013.2
20260505165432 73 169 0.9 7.0 0.00 0.00 0.00 60 1013.2
20260505164930 73 198 0.9 7.0 0.00 0.00 0.00 58 1013.2
20260505164429 72 188 1.7 7.8 0.00 0.00 0.00 59 1013.2
20260505163856 72 99 2.6 7.8 0.00 0.00 0.00 59 1013.2
20260505163355 72 248 2.6 6.1 0.00 0.00 0.00 58 1013.2
20260505162854 72 98 2.6 6.1 0.00 0.00 0.00 57 1013.2
20260505162353 73 96 1.7 6.1 0.00 0.00 0.00 58 1013.2
20260505161852 73 71 2.6 6.1 0.00 0.00 0.00 56 1013.2
20260505161350 73 196 0.0 2.6 0.00 0.00 0.00 60 1013.2
20260505160849 72 203 0.9 2.6 0.00 0.00 0.00 62 1013.2
20260505160346 71 283 0.9 2.6 0.00 0.00 0.00 61 1013.2
20260505153308 69 321 0.9 2.6 0.00 0.00 0.00 62 1013.5
20260505152807 69 296 0.9 2.6 0.00 0.00 0.00 64 1013.2
20260505152202 68 309 0.9 2.6 0.00 0.00 0.00 63 1013.2
20260505151701 68 311 1.7 2.6 0.00 0.00 0.00 63 1013.2
20260505151159 68 285 0.9 1.7 0.00 0.00 0.00 63 1013.2
20260505150658 68 276 0.9 1.7 0.00 0.00 0.00 64 1013.2
20260505150157 68 209 0.9 1.7 0.00 0.00 0.00 64 1013.2
20260505140612 64 234 1.7 4.3 0.00 0.00 0.00 65 1013.2
20260505140111 64 113 1.7 3.5 0.00 0.00 0.00 65 1013.2
20260505125019 57 137 0.0 0.9 0.00 0.00 0.00 87 1013.2
20260505124518 57 135 0.0 0.9 0.00 0.00 0.00 88 1013.2
20260505124017 56 136 0.0 0.9 0.00 0.00 0.00 89 1013.2
20260505123444 56 136 0.9 0.9 0.00 0.00 0.00 90 1013.2
20260505122943 55 135 0.9 0.9 0.00 0.00 0.00 90 1013.2
20260505122441 54 135 0.0 0.0 0.00 0.00 0.00 91 1013.2
20260505121908 53 135 0.0 0.0 0.00 0.00 0.00 92 1013.2
20260505121407 53 136 0.0 0.0 0.00 0.00 0.00 92 1013.2
20260505120906 52 135 0.0 0.0 0.00 0.00 0.00 93 1013.2
20260505120405 51 136 0.0 0.0 0.00 0.00 0.00 93 1013.2
20260505115904 51 136 0.0 0.0 0.00 0.00 0.00 94 1013.2
20260505115403 50 137 0.0 0.0 0.00 0.00 0.00 94 1013.2
20260505114902 50 135 0.0 0.0 0.00 0.00 0.00 94 1013.2
20260505114401 49 137 0.0 0.0 0.00 0.00 0.00 94 1013.2
20260505113900 49 136 0.0 0.0 0.00 0.00 0.00 94 1012.9
20260505113359 49 137 0.0 0.0 0.00 0.00 0.00 94 1012.9
20260505112857 48 136 0.0 0.0 0.00 0.00 0.00 94 1012.9
20260505112356 48 136 0.0 0.0 0.00 0.00 0.00 94 1012.9
20260505111855 48 136 0.0 0.0 0.00 0.00 0.00 94 1012.5
20260505111354 48 137 0.0 0.9 0.00 0.00 0.00 94 1012.5
20260505110851 48 137 0.0 0.9 0.00 0.00 0.00 94 1012.2
20260505110319 48 136 0.0 0.9 0.00 0.00 0.00 94 1012.2
20260505101803 49 137 0.0 0.9 0.00 0.00 0.00 93 1012.2
20260505101301 49 137 0.0 1.7 0.00 0.00 0.00 92 1012.2
20260505100800 49 137 0.9 1.7 0.00 0.00 0.00 92 1012.2
20260505100258 49 136 0.0 1.7 0.00 0.00 0.00 92 1012.2
20260505095757 49 136 0.0 1.7 0.00 0.00 0.00 92 1012.2
20260505095256 49 111 0.0 0.9 0.00 0.00 0.00 92 1012.2
20260505094755 49 111 0.0 0.9 0.00 0.00 0.00 92 1012.2
20260505094254 49 111 0.0 0.9 0.00 0.00 0.00 92 1012.2
20260505093753 49 112 0.0 0.9 0.00 0.00 0.00 92 1012.2
20260505093252 49 111 0.0 0.9 0.00 0.00 0.00 91 1011.9
20260505092752 50 112 0.0 0.9 0.00 0.00 0.00 91 1011.9
20260505092219 50 111 0.0 0.9 0.00 0.00 0.00 91 1012.2
20260505091718 50 111 0.0 0.9 0.00 0.00 0.00 91 1012.2
20260505091146 50 111 0.0 0.9 0.00 0.00 0.00 91 1011.9
20260505090643 50 111 0.0 0.9 0.00 0.00 0.00 91 1011.9
20260505090142 50 111 0.0 0.9 0.00 0.00 0.00 92 1011.9
20260505085640 50 112 0.0 0.9 0.00 0.00 0.00 91 1011.9
20260505085138 50 112 0.0 0.0 0.00 0.00 0.00 91 1011.9
20260505084637 50 112 0.0 0.0 0.00 0.00 0.00 91 1011.9
20260505084136 50 112 0.0 0.0 0.00 0.00 0.00 91 1011.5
20260505083635 50 111 0.0 0.0 0.00 0.00 0.00 90 1011.9
20260505083133 51 112 0.0 0.9 0.00 0.00 0.00 90 1011.9
20260505082632 51 112 0.0 0.9 0.00 0.00 0.00 90 1011.9
20260505082131 51 112 0.0 0.9 0.00 0.00 0.00 90 1011.9
20260505081629 51 112 0.0 0.9 0.00 0.00 0.00 90 1011.9
20260505081128 51 112 0.0 0.0 0.00 0.00 0.00 90 1011.9
20260505080627 51 112 0.0 0.0 0.00 0.00 0.00 90 1011.9
20260505080126 51 112 0.0 0.0 0.00 0.00 0.00 89 1011.9
20260505075626 51 112 0.0 0.9 0.00 0.00 0.00 89 1011.5
20260505075125 51 111 0.0 0.9 0.00 0.00 0.00 88 1011.9
20260505074623 51 111 0.0 0.9 0.00 0.00 0.00 88 1011.9
20260505074122 52 112 0.0 0.9 0.00 0.00 0.00 88 1011.9
20260505073620 52 110 0.0 0.9 0.00 0.00 0.00 87 1011.5
20260505073048 52 110 0.0 0.9 0.00 0.00 0.00 87 1011.5
20260505072546 52 110 0.0 0.9 0.00 0.00 0.00 87 1011.5
20260505072045 52 134 0.0 0.9 0.00 0.00 0.00 87 1011.5
20260505071544 52 134 0.9 0.9 0.00 0.00 0.00 87 1011.5
20260505071042 52 134 0.0 0.9 0.00 0.00 0.00 87 1011.9
20260505070541 52 134 0.9 0.9 0.00 0.00 0.00 87 1011.5
20260505070040 52 111 0.0 0.9 0.00 0.00 0.00 87 1011.5
20260505065436 52 112 0.0 0.9 0.00 0.00 0.00 86 1011.5
20260505064935 52 111 0.0 0.0 0.00 0.00 0.00 86 1011.9
20260505064432 53 111 0.0 0.0 0.00 0.00 0.00 86 1011.9
20260505063931 53 112 0.0 0.0 0.00 0.00 0.00 85 1011.9
20260505063430 53 111 0.0 0.0 0.00 0.00 0.00 84 1011.9
20260505062929 53 112 0.0 0.0 0.00 0.00 0.00 84 1011.9
20260505062427 54 112 0.0 0.0 0.00 0.00 0.00 83 1011.9
20260505061926 54 112 0.0 0.0 0.00 0.00 0.00 83 1011.9
20260505061425 54 111 0.0 0.0 0.00 0.00 0.00 82 1011.9
20260505060924 55 111 0.0 0.0 0.00 0.00 0.00 81 1011.9
20260505060422 55 112 0.0 0.0 0.00 0.00 0.00 80 1011.9
20260505055921 55 111 0.0 0.0 0.00 0.00 0.00 79 1011.9
20260505055420 56 112 0.0 0.0 0.00 0.00 0.00 78 1011.9
20260505054918 56 111 0.0 0.0 0.00 0.00 0.00 78 1012.2
20260505054417 57 112 0.0 0.0 0.00 0.00 0.00 76 1011.9